Jonesboro, AR

9:34 AM CDT on June 22, 2017 (GMT -0500)
Jonesboro Municipal

Weather History for KJBR - September, 2013

Change the Weather History Date:

Wednesday, September 11, 2013

  Actual Average Record
Temperature  
Mean Temperature 85 °F 74 °F  
Max Temperature 96 °F 85 °F 100 °F (1953)
Min Temperature 73 °F 63 °F 42 °F (1976)
Degree Days  
Heating Degree Days 0 0  
Month to date heating degree days 0 0  
Since 1 July heating degree days 0 0  
Cooling Degree Days 20 9  
Month to date cooling degree days 181 116  
Year to date cooling degree days 1781 1662  
Growing Degree Days 33 (Base 50)    
Moisture  
Dew Point 72 °F    
Average Humidity 67    
Maximum Humidity 88    
Minimum Humidity 46    
Precipitation  
Precipitation 0.24 in 0.11 in 4.90 in (1965)
Month to date precipitation 0.24 1.11  
Year to date precipitation 37.69 32.22  
Snow  
Snow 0.00 in 0.00 in - ()
Month to date snowfall 0.0 0.0  
Since 1 July snowfall 0.0 0.0  
Since 1 September snowfall 0.0 0.0  
Snow Depth 0.00 in    
Sea Level Pressure  
Sea Level Pressure 30.09 in    
Wind  
Wind Speed 2 mph (ESE)    
Max Wind Speed 25 mph    
Max Gust Speed 29 mph    
Visibility 8 miles    
Events Rain , Thunderstorm    
T = Trace of Precipitation, MM = Missing Value Source: NWS Daily Summary

Daily Weather History Graph

Daily Weather History Graph

Search for Another Location

Airport or City:

Trip Planner

Search our weather history database for the weather conditions in past years. The results will help you decide how hot, cold, wet, or windy it might be!

Date:

Astronomy

Sep. 11, 2013 Rise Set
Actual Time 6:42 AM CDT 7:15 PM CDT
Civil Twilight 6:16 AM CDT 7:40 PM CDT
Nautical Twilight 5:46 AM CDT 8:11 PM CDT
Astronomical Twilight 5:15 AM CDT 8:42 PM CDT
Moon 12:58 PM CDT (9/11) 11:24 PM CDT (9/11)
Length of Visible Light 13h 24m
Length of Day
12h 32m
Waxing Crescent, 39% of the Moon is Illuminated
Sep 11
Waxing Crescent
Sep 12
First Quarter
Sep 19
Full
Sep 26
Last Quarter
Oct 4
New

Hourly Weather History & Observations

Time (CDT) Temp. Heat Index Dew Point Humidity Pressure Visibility Wind Dir Wind Speed Gust Speed Precip Events Conditions
12:53 AM 75.0 °F - 70.0 °F 84% 30.10 in 10.0 mi NE 3.5 mph - N/A   Clear
1:53 AM 73.9 °F - 70.0 °F 87% 30.10 in 10.0 mi Calm Calm - N/A   Clear
2:53 AM 73.9 °F - 70.0 °F 87% 30.10 in 10.0 mi Calm Calm - N/A   Clear
3:53 AM 75.0 °F - 70.0 °F 84% 30.11 in 10.0 mi Calm Calm - N/A   Clear
4:53 AM 75.0 °F - 71.1 °F 87% 30.11 in 9.0 mi Calm Calm - N/A   Clear
5:53 AM 75.0 °F - 70.0 °F 84% 30.13 in 8.0 mi ENE 3.5 mph - N/A   Clear
6:53 AM 73.0 °F - 69.1 °F 87% 30.14 in 6.0 mi NE 3.5 mph - N/A   Clear
7:53 AM 77.0 °F - 71.1 °F 82% 30.14 in 8.0 mi Calm Calm - N/A   Clear
8:53 AM 80.1 °F 83.8 °F 72.0 °F 76% 30.14 in 10.0 mi North - - N/A   Clear
9:53 AM 82.9 °F 88.0 °F 72.0 °F 69% 30.14 in 10.0 mi South 5.8 mph - N/A   Clear
10:53 AM 86.0 °F 92.2 °F 72.0 °F 63% 30.14 in 10.0 mi South 4.6 mph - N/A   Clear
11:53 AM 90.0 °F 96.9 °F 72.0 °F 55% 30.14 in 10.0 mi SE 3.5 mph - N/A   Clear
12:53 PM 93.0 °F 100.1 °F 71.1 °F 49% 30.13 in 10.0 mi SE 3.5 mph - N/A   Clear
1:53 PM 93.9 °F 100.3 °F 70.0 °F 46% 30.10 in 10.0 mi SSE 3.5 mph - N/A   Clear
2:53 PM 84.0 °F 90.2 °F 73.0 °F 69% 30.07 in 1.8 mi NE 9.2 mph 26.5 mph 0.14 in Rain Heavy Rain
3:07 PM 82.4 °F 89.5 °F 75.2 °F 79% 30.07 in 3.0 mi NNE 8.1 mph - 0.10 in Rain Light Rain
3:53 PM 86.0 °F 98.3 °F 78.1 °F 77% 30.07 in 6.0 mi Calm Calm - 0.10 in   Haze
4:00 PM 87.8 °F 97.6 °F 75.2 °F 66% 30.07 in 8.0 mi SSW 8.1 mph - N/A Thunderstorm Thunderstorm
4:53 PM 84.9 °F 90.1 °F 71.1 °F 63% 30.06 in 10.0 mi NW 5.8 mph - N/A Thunderstorm Partly Cloudy
5:02 PM 84.2 °F 89.6 °F 71.6 °F 66% 30.07 in 10.0 mi WNW 4.6 mph - N/A   Clear
5:53 PM 87.1 °F 94.5 °F 73.0 °F 63% 30.06 in 10.0 mi South 5.8 mph - N/A   Clear
6:53 PM 87.1 °F 94.5 °F 73.0 °F 63% 30.05 in 10.0 mi Calm Calm - N/A   Clear
7:53 PM 80.1 °F 85.4 °F 75.9 °F 87% 30.05 in 8.0 mi Calm Calm - N/A   Clear
8:53 PM 79.0 °F - 73.9 °F 84% 30.07 in 7.0 mi ENE 3.5 mph - N/A   Clear
9:53 PM 79.0 °F - 73.0 °F 82% 30.07 in 8.0 mi Calm Calm - N/A   Clear
10:53 PM 77.0 °F - 73.0 °F 88% 30.06 in 6.0 mi Calm Calm - N/A   Clear
11:53 PM 77.0 °F - 73.0 °F 88% 30.06 in 6.0 mi Calm Calm - N/A   Clear